Погода в Большой Сее

Россия / Республика Хакасия     52°44′39″N   89°47′48″E
темп.,
°C
ветер,
м/с
пор.,
м/с
влажн.,
%
обл.,
%
осадки,
мм/ч
давл.,
гПа
погр.,
м
12 апреля, пн
пн1201:00−4юз118816 0.0 103811
04:00−4юз11895 0.0 103718
07:00−3юз228554 0.0 103754
10:00+4зюз2365100 0.0 1034281
13:00+10зюз364291 0.0 1031870
16:00+11з475189 0.0 1029915
19:00+6з0077100 0.0 103010
22:00+2юз228899 0.0 103029
13 апреля, вт
вт1301:00+1юз228797 0.0 102833
04:00+1юз3487100 0.0 102760
07:00+2зюз3979100 0.0 1026248
10:00+6з51164100 0.0 1025943
13:00+5з61066100 0.0 1025916
16:00+2з61185100 0.8 1027944
19:00+1зюз6108369 1.3 1029772
22:00−1зюз51084100 0.1 1032528
14 апреля, ср
ср1401:00−1зюз31096100 0.6 1033711
04:00−1зюз81378100 0.4 10321070
07:00−1зюз7137897 0.4 1033906
10:00+2зюз7116699 0.0 10331409
13:00+4з8126499 0.4 10311710
16:00+4з8126795 0.3 10301521
19:00+2зюз71372100 0.3 10291091
22:00+1зюз71484100 0.0 1028931
15 апреля, чт
чт1501:00+1зюз61488100 0.1 1027867
04:00+2зюз61281100 0.0 1026985
07:00+2зюз51280100 0.0 1026830
10:00+6з6106599 0.0 10261336
13:00+9з694946 0.0 10241694
16:00+9з685360 0.0 10231530
19:00+7зсз376989 0.0 1023477
22:00+3юз22878 0.0 102317
16 апреля, пт
пт1601:00+2юз228979 0.0 102320
04:00+1юз228915 0.0 102227
07:00+2юз22855 0.0 102240
10:00+9зюз35595 0.0 1021782
13:00+12з574829 0.0 10191503
16:00+13зсз464418 0.0 10171459
19:00+11сз23615 0.0 101777
22:00+6юз21785 0.0 101811